Total_Precipitation_Accumulation
1.71 1.58 1.04 0.59 0.54 0.41 0.31 0.29 0.29 0.33 0.37 0.50 0.53 0.46 0.52 0.45 0.38 0.37 0.34 0.33 0.38 0.48 0.62 0.80 0.98 1.19 1.43 1.63 1.72 1.74 1.68 1.69 1.72 1.69 1.52 1.31 1.10 1.01 0.87 0.75 0.65 0.58 0.54 0.51
1.46 1.15 0.59 0.42 0.47 0.44 0.34 0.33 0.33 0.32 0.36 0.46 0.49 0.45 0.44 0.41 0.36 0.36 0.40 0.35 0.35 0.43 0.54 0.63 0.82 1.01 1.27 1.52 1.72 1.81 1.81 1.82 1.70 1.56 1.59 1.53 1.45 1.29 1.17 1.08 0.94 0.76 0.67 0.65
1.08 0.74 0.55 0.49 0.47 0.43 0.29 0.29 0.29 0.32 0.40 0.43 0.49 0.50 0.39 0.35 0.32 0.32 0.36 0.34 0.35 0.43 0.49 0.54 0.65 0.76 1.02 1.29 1.59 1.75 1.86 1.90 1.89 1.84 1.96 1.89 1.75 1.49 1.22 1.04 0.99 0.94 0.87 0.82
1.01 0.61 0.57 0.56 0.43 0.35 0.28 0.19 0.26 0.33 0.50 0.53 0.50 0.57 0.31 0.29 0.33 0.35 0.39 0.39 0.39 0.43 0.50 0.55 0.61 0.68 0.84 1.08 1.31 1.50 1.75 1.92 2.01 2.09 2.04 1.92 1.70 1.44 1.19 1.14 1.22 1.21 1.10 0.99
0.97 0.63 0.59 0.60 0.40 0.30 0.27 0.18 0.26 0.36 0.51 0.58 0.40 0.46 0.33 0.26 0.37 0.43 0.45 0.45 0.43 0.45 0.49 0.53 0.60 0.66 0.77 0.96 1.15 1.27 1.48 1.76 1.85 1.83 1.83 1.90 1.76 1.55 1.41 1.34 1.29 1.25 1.15 1.05
0.79 0.60 0.63 0.56 0.40 0.32 0.29 0.35 0.39 0.45 0.67 0.80 0.48 0.50 0.42 0.39 0.44 0.41 0.40 0.40 0.46 0.51 0.55 0.58 0.63 0.66 0.69 0.79 0.99 1.16 1.24 1.43 1.55 1.54 1.61 1.69 1.61 1.55 1.45 1.30 1.21 1.18 1.13 1.03
1.08 0.76 0.56 0.51 0.55 0.42 0.41 0.67 0.93 0.90 0.84 0.62 0.39 0.46 0.49 0.46 0.50 0.50 0.46 0.45 0.52 0.58 0.66 0.69 0.66 0.69 0.69 0.72 0.78 0.94 1.06 1.17 1.30 1.40 1.48 1.49 1.50 1.46 1.41 1.31 1.21 1.15 1.09 1.00
1.04 0.98 0.56 0.45 0.51 0.44 0.37 0.50 0.69 0.67 0.52 0.37 0.30 0.43 0.50 0.50 0.50 0.49 0.49 0.51 0.54 0.65 0.76 0.77 0.75 0.83 0.85 0.82 0.78 0.80 0.86 0.91 1.02 1.20 1.30 1.32 1.34 1.29 1.21 1.14 1.07 1.01 0.95 0.94
0.59 0.66 0.39 0.28 0.28 0.37 0.42 0.38 0.32 0.62 0.55 0.42 0.33 0.34 0.39 0.42 0.45 0.51 0.54 0.53 0.56 0.68 0.78 0.82 0.85 0.86 0.82 0.76 0.76 0.77 0.82 0.80 0.78 0.87 0.98 1.06 1.11 1.09 1.03 0.97 0.90 0.86 0.84 0.84
0.27 0.45 0.40 0.32 0.34 0.40 0.37 0.31 0.45 0.93 0.87 0.55 0.31 0.31 0.47 0.48 0.50 0.50 0.50 0.50 0.54 0.58 0.64 0.71 0.73 0.70 0.67 0.65 0.66 0.71 0.74 0.75 0.69 0.70 0.78 0.89 0.90 0.86 0.82 0.81 0.78 0.71 0.68 0.69
0.18 0.30 0.40 0.44 0.40 0.37 0.35 0.40 0.50 0.66 0.63 0.62 0.37 0.42 0.50 0.45 0.44 0.42 0.43 0.46 0.48 0.48 0.47 0.49 0.50 0.52 0.50 0.54 0.60 0.69 0.76 0.76 0.64 0.66 0.74 0.78 0.80 0.79 0.74 0.69 0.68 0.67 0.62 0.60
0.14 0.25 0.37 0.36 0.22 0.20 0.26 0.28 0.40 0.73 0.59 0.46 0.41 0.43 0.39 0.35 0.36 0.35 0.37 0.41 0.41 0.42 0.40 0.38 0.36 0.34 0.33 0.35 0.42 0.52 0.60 0.62 0.57 0.57 0.66 0.64 0.64 0.70 0.69 0.65 0.62 0.61 0.57 0.51
0.20 0.35 0.56 0.49 0.38 0.31 0.30 0.28 0.43 0.72 0.82 0.60 0.50 0.40 0.32 0.30 0.28 0.30 0.33 0.36 0.36 0.33 0.28 0.24 0.23 0.25 0.25 0.26 0.31 0.39 0.46 0.47 0.48 0.50 0.53 0.52 0.51 0.54 0.55 0.57 0.56 0.54 0.54 0.50
0.34 0.41 0.59 0.67 0.59 0.52 0.44 0.33 0.48 0.93 1.06 0.52 0.34 0.34 0.30 0.30 0.33 0.34 0.31 0.27 0.25 0.23 0.19 0.17 0.17 0.18 0.18 0.20 0.25 0.29 0.31 0.33 0.35 0.36 0.38 0.39 0.41 0.43 0.43 0.44 0.47 0.46 0.45 0.46
0.41 0.65 0.67 0.56 0.47 0.53 0.50 0.39 0.48 0.70 0.57 0.43 0.28 0.25 0.28 0.28 0.31 0.31 0.25 0.20 0.14 0.13 0.11 0.10 0.11 0.13 0.13 0.14 0.16 0.19 0.22 0.24 0.26 0.28 0.29 0.30 0.31 0.33 0.35 0.34 0.34 0.34 0.35 0.36
0.41 0.68 0.74 0.60 0.35 0.36 0.37 0.29 0.35 0.43 0.35 0.29 0.21 0.22 0.19 0.21 0.26 0.27 0.20 0.13 0.09 0.08 0.06 0.05 0.06 0.08 0.09 0.09 0.10 0.12 0.16 0.18 0.20 0.22 0.22 0.22 0.23 0.23 0.24 0.24 0.24 0.24 0.26 0.30
0.36 0.56 0.79 0.63 0.34 0.35 0.34 0.24 0.28 0.32 0.26 0.22 0.22 0.18 0.13 0.17 0.23 0.27 0.20 0.12 0.07 0.05 0.05 0.04 0.04 0.04 0.05 0.06 0.09 0.14 0.17 0.17 0.18 0.19 0.17 0.17 0.19 0.21 0.20 0.20 0.24 0.29 0.33 0.37
0.20 0.38 0.62 0.56 0.47 0.50 0.31 0.19 0.19 0.22 0.18 0.15 0.13 0.09 0.09 0.14 0.16 0.17 0.17 0.14 0.09 0.05 0.03 0.03 0.02 0.03 0.03 0.05 0.09 0.15 0.22 0.24 0.28 0.30 0.26 0.22 0.23 0.28 0.33 0.38 0.42 0.50 0.58 0.62
0.07 0.25 0.47 0.39 0.33 0.23 0.13 0.11 0.12 0.16 0.14 0.08 0.07 0.05 0.05 0.06 0.13 0.15 0.13 0.14 0.11 0.06 0.04 0.03 0.03 0.03 0.04 0.05 0.08 0.13 0.22 0.29 0.34 0.37 0.40 0.39 0.42 0.48 0.53 0.61 0.67 0.69 0.76 0.77
0.04 0.13 0.32 0.27 0.20 0.09 0.06 0.03 0.04 0.08 0.11 0.04 0.03 0.03 0.03 0.03 0.08 0.12 0.15 0.18 0.18 0.14 0.08 0.05 0.05 0.06 0.08 0.10 0.14 0.21 0.29 0.38 0.44 0.49 0.54 0.56 0.57 0.60 0.62 0.63 0.63 0.62 0.62 0.60
0.08 0.14 0.22 0.20 0.15 0.02 0.01 0.01 0.01 0.05 0.08 0.03 0.04 0.04 0.03 0.04 0.04 0.05 0.09 0.15 0.17 0.19 0.18 0.17 0.16 0.18 0.20 0.22 0.29 0.38 0.45 0.53 0.58 0.59 0.63 0.64 0.61 0.58 0.54 0.47 0.41 0.37 0.34 0.31
0.03 0.06 0.07 0.08 0.11 0.04 0.02 0.01 0.02 0.02 0.01 0.01 0.02 0.03 0.04 0.03 0.03 0.03 0.05 0.09 0.11 0.15 0.19 0.23 0.27 0.27 0.28 0.33 0.40 0.47 0.53 0.55 0.52 0.46 0.43 0.39 0.34 0.30 0.27 0.23 0.21 0.19 0.17 0.16
0.03 0.03 0.03 0.04 0.05 0.03 0.02 0.02 0.01 0.02 0.02 0.02 0.02 0.03 0.03 0.04 0.04 0.04 0.04 0.04 0.05 0.06 0.08 0.12 0.17 0.20 0.20 0.22 0.24 0.26 0.25 0.23 0.20 0.16 0.14 0.13 0.12 0.11 0.11 0.11 0.11 0.10 0.10 0.10
0.05 0.03 0.03 0.04 0.03 0.03 0.02 0.01 0.02 0.02 0.02 0.03 0.02 0.02 0.02 0.03 0.04 0.04 0.04 0.05 0.05 0.06 0.05 0.05 0.06 0.06 0.06 0.06 0.06 0.06 0.06 0.06 0.06 0.06 0.06 0.07 0.07 0.07 0.07 0.07 0.07 0.07 0.07 0.08
0.08 0.05 0.06 0.06 0.05 0.03 0.03 0.02 0.02 0.02 0.02 0.03 0.03 0.03 0.03 0.03 0.03 0.04 0.04 0.04 0.05 0.05 0.06 0.06 0.07 0.07 0.07 0.07 0.06 0.06 0.06 0.06 0.06 0.06 0.07 0.08 0.09 0.10 0.11 0.11 0.11 0.12 0.12 0.13
0.05 0.06 0.07 0.07 0.04 0.03 0.03 0.02 0.02 0.02 0.02 0.02 0.02 0.03 0.03 0.03 0.04 0.04 0.04 0.04 0.04 0.04 0.05 0.06 0.07 0.09 0.09 0.08 0.08 0.08 0.08 0.08 0.08 0.09 0.09 0.10 0.11 0.12 0.12 0.13 0.13 0.15 0.15 0.17